| time (UTC) | temp F | wind direction | speed knots | gust knots | rain 1hr in | rain 24hr in | rain mn in | humidity % | barometer mb |
| 20260904131105 | 66 | 264 | 1.7 | 3.5 | 0.13 | 3.65 | 3.52 | 99 | 1015.9 |
| 20260904130022 | 66 | 206 | 2.6 | 9.6 | 0.12 | 3.58 | 3.45 | 99 | 1014.7 |
| 20260904125018 | 66 | 214 | 2.6 | 7.8 | 0.13 | 3.58 | 3.45 | 99 | 1014.5 |
| 20260904124035 | 65 | 197 | 2.6 | 7.0 | 0.13 | 3.57 | 3.44 | 99 | 1014.5 |
| 20260904123032 | 65 | 192 | 1.7 | 5.2 | 0.17 | 3.57 | 3.44 | 99 | 1014.4 |
| 20260904122029 | 65 | 193 | 2.6 | 7.0 | 0.30 | 3.57 | 3.44 | 99 | 1014.5 |
| 20260904121025 | 65 | 184 | 2.6 | 7.0 | 0.40 | 3.52 | 3.39 | 99 | 1014.7 |
| 20260904120022 | 65 | 205 | 2.6 | 7.0 | 0.50 | 3.46 | 3.33 | 99 | 1015.2 |
| 20260904115039 | 66 | 172 | 1.7 | 5.2 | 0.66 | 3.45 | 3.32 | 99 | 1014.6 |
| 20260904114015 | 66 | 191 | 1.7 | 6.1 | 0.71 | 3.44 | 3.31 | 99 | 1015.2 |
| 20260904113032 | 66 | 202 | 0.9 | 2.6 | 0.90 | 3.40 | 3.27 | 99 | 1015.5 |
| 20260904112029 | 66 | 197 | 0.9 | 3.5 | 1.01 | 3.27 | 3.14 | 99 | 1015.3 |
| 20260904111026 | 66 | 247 | 0.9 | 5.2 | 1.04 | 3.12 | 2.99 | 99 | 1015.5 |
| 20260904110024 | 66 | 139 | 0.9 | 3.5 | 0.97 | 2.96 | 2.83 | 99 | 1015.3 |
| 20260904105019 | 65 | 346 | 0.9 | 5.2 | 1.21 | 2.79 | 2.66 | 99 | 1015.7 |
| 20260904104036 | 65 | 357 | 1.7 | 8.7 | 1.20 | 2.73 | 2.60 | 99 | 1015.2 |
| 20260904103053 | 66 | 247 | 0.9 | 3.5 | 0.98 | 2.50 | 2.37 | 99 | 1015.1 |
| 20260904102030 | 66 | 40 | 2.6 | 11.3 | 0.75 | 2.26 | 2.13 | 99 | 1015.3 |
| 20260904101028 | 66 | 19 | 1.7 | 6.1 | 0.66 | 2.08 | 1.95 | 99 | 1016.6 |
| 20260904100023 | 66 | 293 | 0.9 | 2.6 | 0.63 | 1.99 | 1.86 | 99 | 1014.9 |
| 20260904095022 | 66 | 93 | 1.7 | 7.0 | 0.25 | 1.58 | 1.45 | 99 | 1014.6 |
| 20260904094057 | 66 | 228 | 2.6 | 9.6 | 0.24 | 1.53 | 1.40 | 99 | 1013.2 |
| 20260904093034 | 66 | 209 | 2.6 | 7.0 | 0.35 | 1.52 | 1.39 | 99 | 1013.1 |
| 20260904092031 | 67 | 145 | 2.6 | 8.7 | 1.01 | 1.51 | 1.38 | 99 | 1013.5 |
| 20260904091048 | 67 | 172 | 0.9 | 5.2 | 1.03 | 1.42 | 1.29 | 99 | 1013.9 |
| 20260904090024 | 67 | 172 | 1.7 | 3.5 | 0.97 | 1.36 | 1.23 | 99 | 1013.8 |
| 20260904085019 | 67 | 147 | 1.7 | 5.2 | 0.98 | 1.33 | 1.20 | 99 | 1013.5 |
| 20260904084035 | 68 | 111 | 2.6 | 16.5 | 0.98 | 1.29 | 1.16 | 99 | 1014.1 |
| 20260904083031 | 69 | 1 | 3.5 | 13.9 | 0.90 | 1.17 | 1.04 | 99 | 1016.9 |
| 20260904082028 | 69 | 358 | 4.3 | 15.6 | 0.29 | 0.50 | 0.37 | 99 | 1014.9 |
| 20260904081044 | 69 | 208 | 3.5 | 13.0 | 0.19 | 0.39 | 0.26 | 99 | 1011.7 |
| 20260904080021 | 68 | 203 | 2.6 | 7.0 | 0.20 | 0.39 | 0.26 | 99 | 1011.6 |
| 20260904075017 | 70 | 170 | 2.6 | 7.8 | 0.17 | 0.35 | 0.22 | 99 | 1012.3 |
| 20260904074033 | 70 | 178 | 1.7 | 6.1 | 0.13 | 0.31 | 0.18 | 99 | 1012.1 |
| 20260904073030 | 71 | 166 | 1.7 | 5.2 | 0.09 | 0.27 | 0.14 | 99 | 1013.0 |
| 20260904072027 | 71 | 220 | 0.9 | 2.6 | 0.04 | 0.21 | 0.08 | 99 | 1013.3 |
| 20260904071025 | 70 | 208 | 0.9 | 2.6 | 0.04 | 0.20 | 0.07 | 99 | 1013.4 |
| 20260904070020 | 70 | 252 | 0.9 | 2.6 | 0.03 | 0.19 | 0.06 | 99 | 1013.5 |
| 20260904065018 | 70 | 213 | 0.9 | 2.6 | 0.02 | 0.18 | 0.05 | 99 | 1013.3 |
| 20260904064033 | 70 | 271 | 0.9 | 1.7 | 0.02 | 0.18 | 0.05 | 99 | 1013.5 |
| 20260904063028 | 70 | 272 | 0.9 | 2.6 | 0.03 | 0.18 | 0.05 | 99 | 1014.0 |
| 20260904062024 | 69 | 303 | 0.0 | 0.9 | 0.04 | 0.17 | 0.04 | 99 | 1014.2 |
| 20260904061021 | 69 | 255 | 0.0 | 1.7 | 0.03 | 0.16 | 0.03 | 99 | 1014.2 |
| 20260904060037 | 69 | 255 | 0.0 | 2.6 | 0.03 | 0.16 | 0.03 | 99 | 1014.2 |
| 20260904055114 | 68 | 305 | 0.9 | 3.5 | 0.03 | 0.16 | 0.03 | 99 | 1014.4 |
| 20260904054129 | 69 | 342 | 1.7 | 3.5 | 0.03 | 0.16 | 0.03 | 99 | 1014.6 |
| 20260904053026 | 69 | 354 | 0.9 | 3.5 | 0.02 | 0.15 | 0.02 | 99 | 1014.8 |
| 20260904052104 | 69 | 347 | 0.9 | 2.6 | 0.00 | 0.13 | 0.00 | 99 | 1015.1 |
| 20260904051018 | 68 | 273 | 0.9 | 1.7 | 0.01 | 0.13 | 0.00 | 99 | 1014.5 |
| 20260904050035 | 68 | 318 | 0.0 | 0.9 | 0.01 | 0.13 | 0.00 | 99 | 1014.0 |
| 20260904045032 | 68 | 6 | 0.0 | 0.9 | 0.01 | 0.13 | 0.13 | 99 | 1014.5 |
| 20260904044028 | 68 | 225 | 0.0 | 2.6 | 0.01 | 0.13 | 0.13 | 99 | 1014.4 |
| 20260904043024 | 69 | 121 | 0.9 | 3.5 | 0.01 | 0.13 | 0.13 | 99 | 1014.0 |
| 20260904042022 | 69 | 194 | 0.9 | 3.5 | 0.01 | 0.13 | 0.13 | 99 | 1014.6 |
| 20260904041018 | 69 | 190 | 0.9 | 2.6 | 0.00 | 0.12 | 0.12 | 99 | 1014.6 |
| 20260904040035 | 68 | 359 | 0.9 | 2.6 | 0.00 | 0.12 | 0.12 | 99 | 1015.2 |
| 20260904035032 | 68 | 350 | 2.6 | 8.7 | 0.00 | 0.12 | 0.12 | 99 | 1015.2 |
| 20260904034109 | 69 | 359 | 2.6 | 8.7 | 0.00 | 0.12 | 0.12 | 98 | 1014.9 |
| 20260904033025 | 69 | 37 | 0.0 | 0.9 | 0.00 | 0.12 | 0.12 | 98 | 1014.9 |
| 20260904032022 | 69 | 335 | 0.9 | 2.6 | 0.00 | 0.12 | 0.12 | 98 | 1015.1 |
| 20260904031019 | 69 | 106 | 0.0 | 0.9 | 0.00 | 0.12 | 0.12 | 97 | 1014.8 |
| 20260904030036 | 69 | 0.0 | 0.0 | 0.00 | 0.12 | 0.12 | 97 | 1015.0 | |
| 20260904025033 | 70 | 352 | 0.0 | 1.7 | 0.00 | 0.12 | 0.12 | 96 | 1015.0 |
| 20260904024029 | 70 | 349 | 0.9 | 1.7 | 0.00 | 0.12 | 0.12 | 96 | 1014.9 |
| 20260904023027 | 70 | 357 | 0.9 | 1.7 | 0.00 | 0.12 | 0.12 | 97 | 1015.2 |
| 20260904022043 | 70 | 335 | 0.9 | 2.6 | 0.00 | 0.12 | 0.12 | 96 | 1014.8 |
| 20260904021021 | 70 | 342 | 0.0 | 0.9 | 0.00 | 0.12 | 0.12 | 94 | 1014.5 |
| 20260904020017 | 70 | 325 | 0.0 | 0.9 | 0.00 | 0.12 | 0.12 | 93 | 1014.6 |
| 20260904015035 | 70 | 332 | 0.0 | 0.9 | 0.00 | 0.12 | 0.12 | 92 | 1014.6 |
| 20260904014051 | 71 | 352 | 0.9 | 3.5 | 0.00 | 0.12 | 0.12 | 91 | 1014.5 |
| 20260904013027 | 73 | 356 | 0.0 | 3.5 | 0.00 | 0.12 | 0.12 | 90 | 1014.3 |
| 20260904012025 | 73 | 241 | 0.0 | 0.9 | 0.00 | 0.12 | 0.12 | 90 | 1014.1 |
| 20260904011040 | 73 | 201 | 0.0 | 1.7 | 0.00 | 0.12 | 0.12 | 90 | 1013.8 |
| 20260904010017 | 73 | 218 | 0.0 | 0.9 | 0.00 | 0.12 | 0.12 | 90 | 1013.7 |
| 20260904005034 | 73 | 175 | 0.0 | 0.9 | 0.00 | 0.12 | 0.12 | 90 | 1013.5 |
| 20260904004051 | 74 | 172 | 0.0 | 0.9 | 0.00 | 0.12 | 0.12 | 88 | 1013.5 |
| 20260904003027 | 75 | 0.0 | 0.0 | 0.00 | 0.12 | 0.12 | 87 | 1013.5 | |
| 20260904002024 | 75 | 194 | 0.0 | 0.9 | 0.00 | 0.12 | 0.12 | 87 | 1013.4 |
| 20260904001020 | 76 | 275 | 0.0 | 0.9 | 0.00 | 0.12 | 0.12 | 86 | 1013.5 |
| 20260904000037 | 76 | 193 | 0.0 | 2.6 | 0.00 | 0.12 | 0.12 | 86 | 1013.5 |
| 20260903235034 | 76 | 113 | 0.0 | 1.7 | 0.00 | 0.12 | 0.12 | 85 | 1013.4 |
| 20260903234031 | 77 | 139 | 0.9 | 1.7 | 0.00 | 0.12 | 0.12 | 83 | 1013.2 |
| 20260903233027 | 78 | 149 | 0.9 | 2.6 | 0.00 | 0.12 | 0.12 | 82 | 1013.1 |
| 20260903232022 | 79 | 162 | 0.0 | 1.7 | 0.00 | 0.12 | 0.12 | 81 | 1013.3 |
| 20260903231019 | 78 | 138 | 0.0 | 1.7 | 0.00 | 0.12 | 0.12 | 82 | 1013.4 |
| 20260903230016 | 78 | 149 | 0.9 | 1.7 | 0.00 | 0.12 | 0.12 | 83 | 1013.4 |
| 20260903225033 | 79 | 159 | 0.9 | 3.5 | 0.00 | 0.12 | 0.12 | 82 | 1013.2 |
| 20260903224030 | 79 | 158 | 0.9 | 2.6 | 0.00 | 0.12 | 0.12 | 82 | 1013.3 |
| 20260903223108 | 79 | 144 | 0.9 | 3.5 | 0.00 | 0.12 | 0.12 | 81 | 1013.3 |
| 20260903222024 | 78 | 175 | 0.9 | 1.7 | 0.00 | 0.12 | 0.12 | 83 | 1013.5 |
| 20260903221021 | 78 | 144 | 0.9 | 2.6 | 0.00 | 0.12 | 0.12 | 83 | 1013.2 |
| 20260903220017 | 77 | 132 | 0.9 | 3.5 | 0.00 | 0.12 | 0.12 | 85 | 1013.4 |
| 20260903215034 | 76 | 189 | 0.0 | 1.7 | 0.00 | 0.12 | 0.12 | 88 | 1013.3 |
| 20260903214032 | 76 | 177 | 1.7 | 6.1 | 0.00 | 0.12 | 0.12 | 88 | 1013.2 |
| 20260903213027 | 76 | 189 | 1.7 | 5.2 | 0.00 | 0.12 | 0.12 | 88 | 1013.2 |
| 20260903212024 | 76 | 174 | 1.7 | 5.2 | 0.00 | 0.12 | 0.12 | 88 | 1013.0 |
| 20260903211041 | 76 | 184 | 1.7 | 3.5 | 0.00 | 0.12 | 0.12 | 88 | 1012.8 |
| 20260903210018 | 76 | 154 | 1.7 | 5.2 | 0.00 | 0.12 | 0.12 | 89 | 1012.9 |
| 20260903205036 | 76 | 157 | 1.7 | 3.5 | 0.00 | 0.12 | 0.12 | 89 | 1013.2 |
| 20260903204032 | 76 | 164 | 1.7 | 3.5 | 0.00 | 0.12 | 0.12 | 86 | 1013.2 |
| 20260903203029 | 77 | 173 | 0.9 | 2.6 | 0.00 | 0.12 | 0.12 | 85 | 1013.5 |
| 20260903202025 | 77 | 158 | 1.7 | 3.5 | 0.00 | 0.12 | 0.12 | 84 | 1013.2 |
| 20260903201042 | 77 | 144 | 0.9 | 2.6 | 0.00 | 0.12 | 0.12 | 85 | 1013.1 |
| 20260903200018 | 76 | 104 | 0.9 | 3.5 | 0.00 | 0.12 | 0.12 | 86 | 1013.1 |
| 20260903195035 | 76 | 111 | 1.7 | 3.5 | 0.00 | 0.12 | 0.12 | 85 | 1013.4 |
| 20260903194052 | 77 | 132 | 0.9 | 2.6 | 0.00 | 0.12 | 0.12 | 83 | 1013.7 |
| 20260903193029 | 78 | 107 | 0.9 | 2.6 | 0.00 | 0.12 | 0.12 | 81 | 1014.1 |
| 20260903192026 | 79 | 105 | 0.9 | 3.5 | 0.00 | 0.12 | 0.12 | 79 | 1014.5 |
| 20260903191023 | 80 | 114 | 0.9 | 2.6 | 0.00 | 0.12 | 0.12 | 77 | 1014.5 |
| 20260903190018 | 82 | 8 | 0.9 | 3.5 | 0.00 | 0.12 | 0.12 | 76 | 1014.2 |
| 20260903185035 | 80 | 3 | 0.9 | 3.5 | 0.00 | 0.12 | 0.12 | 77 | 1014.3 |
| 20260903184032 | 79 | 40 | 0.9 | 3.5 | 0.00 | 0.12 | 0.12 | 80 | 1014.3 |
| 20260903183029 | 76 | 72 | 0.9 | 3.5 | 0.00 | 0.12 | 0.12 | 83 | 1014.1 |
| 20260903182046 | 75 | 107 | 1.7 | 6.1 | 0.00 | 0.12 | 0.12 | 80 | 1014.1 |
| 20260903181021 | 78 | 117 | 1.7 | 5.2 | 0.00 | 0.12 | 0.12 | 78 | 1014.3 |
| 20260903180018 | 80 | 121 | 1.7 | 3.5 | 0.00 | 0.12 | 0.12 | 76 | 1014.5 |
| 20260903175035 | 81 | 232 | 0.9 | 2.6 | 0.00 | 0.12 | 0.12 | 78 | 1014.7 |
| 20260903174051 | 81 | 262 | 0.9 | 1.7 | 0.00 | 0.12 | 0.12 | 80 | 1014.4 |
| 20260903173027 | 80 | 350 | 1.7 | 5.2 | 0.00 | 0.12 | 0.12 | 80 | 1013.5 |
| 20260903172024 | 79 | 325 | 0.9 | 2.6 | 0.00 | 0.12 | 0.12 | 82 | 1013.4 |
| 20260903171021 | 79 | 315 | 0.0 | 1.7 | 0.00 | 0.12 | 0.12 | 83 | 1013.2 |
| 20260903170017 | 78 | 285 | 0.9 | 5.2 | 0.00 | 0.12 | 0.12 | 83 | 1013.3 |
| 20260903165035 | 78 | 280 | 1.7 | 9.6 | 0.00 | 0.12 | 0.12 | 82 | 1013.1 |
| 20260903164030 | 78 | 275 | 3.5 | 9.6 | 0.00 | 0.12 | 0.12 | 83 | 1013.5 |
| 20260903163027 | 78 | 277 | 2.6 | 9.6 | 0.00 | 0.12 | 0.12 | 85 | 1013.8 |
| 20260903162024 | 77 | 270 | 2.6 | 8.7 | 0.00 | 0.12 | 0.12 | 86 | 1014.0 |
| 20260903161021 | 77 | 273 | 4.3 | 11.3 | 0.00 | 0.12 | 0.12 | 87 | 1014.0 |
| 20260903160037 | 76 | 280 | 3.5 | 9.6 | 0.00 | 0.12 | 0.12 | 90 | 1013.9 |
| 20260903155036 | 75 | 277 | 4.3 | 9.6 | 0.01 | 0.15 | 0.12 | 92 | 1013.7 |
| 20260903154051 | 74 | 277 | 3.5 | 7.0 | 0.01 | 0.17 | 0.12 | 93 | 1013.5 |
| 20260903153028 | 74 | 268 | 2.6 | 9.6 | 0.01 | 0.17 | 0.12 | 93 | 1013.2 |
| 20260903152024 | 74 | 271 | 2.6 | 7.8 | 0.03 | 0.17 | 0.12 | 93 | 1013.2 |
| 20260903151021 | 74 | 250 | 2.6 | 9.6 | 0.05 | 0.17 | 0.12 | 95 | 1013.2 |
| 20260903150018 | 73 | 233 | 1.7 | 6.1 | 0.06 | 0.17 | 0.12 | 99 | 1013.3 |
| 20260903145035 | 73 | 209 | 2.6 | 5.2 | 0.11 | 0.16 | 0.11 | 99 | 1013.2 |
| 20260903144032 | 73 | 192 | 0.9 | 2.6 | 0.11 | 0.16 | 0.11 | 99 | 1013.2 |
| 20260903143029 | 73 | 180 | 0.9 | 1.7 | 0.11 | 0.16 | 0.11 | 99 | 1013.3 |
| 20260903142025 | 73 | 0.0 | 0.0 | 0.09 | 0.14 | 0.09 | 99 | 1013.8 | |
| 20260903141022 | 73 | 252 | 0.0 | 1.7 | 0.07 | 0.12 | 0.07 | 99 | 1013.8 |
| 20260903140018 | 73 | 173 | 0.0 | 0.9 | 0.06 | 0.11 | 0.06 | 98 | 1013.9 |
| 20260903135035 | 73 | 254 | 0.0 | 0.9 | 0.00 | 0.05 | 0.00 | 98 | 1014.0 |
| 20260903134051 | 73 | 292 | 0.0 | 1.7 | 0.00 | 0.05 | 0.00 | 99 | 1013.8 |
| 20260903133028 | 74 | 0 | 0.0 | 0.9 | 0.00 | 0.05 | 0.00 | 99 | 1013.4 |
| 20260903132025 | 71 | 9 | 0.0 | 1.7 | 0.00 | 0.05 | 0.00 | 99 | 1013.2 |